This is the latest recevied weather packets stored in our database for station/object KD7KCN-5. If no packets are shown the sender has not sent any weather packets the latest 10 day(s).
| Time | Temp. | Humidity | Pressure | Rain* | Wind** | Luminosity | Snow |
|---|---|---|---|---|---|---|---|
| 1777585924 | 17.22° C | 26% | 1012.5 hPa | 0 mm | - | 239 W/m² | - |
| 1777585323 | 17.78° C | 24% | 1012.6 hPa | 0 mm | - | 188 W/m² | - |
| 1777584723 | 18.89° C | 25% | 1012.6 hPa | 0 mm | - | 246 W/m² | - |
| 1777584125 | 17.78° C | 25% | 1012.7 hPa | 0 mm | - | 195 W/m² | - |
| 1777583523 | 17.78° C | 27% | 1012.7 hPa | 0 mm | - | 998 W/m² | - |
| 1777582923 | 17.22° C | 26% | 1012.8 hPa | 0 mm | - | 230 W/m² | - |
| 1777582323 | 17.78° C | 25% | 1012.8 hPa | 0 mm | - | 149 W/m² | - |
| 1777580524 | 18.33° C | 24% | 1013 hPa | 0 mm | - | 1025 W/m² | - |
| 1777579323 | 19.44° C | 25% | 1013.2 hPa | 0 mm | - | 204 W/m² | - |
| 1777578723 | 19.44° C | 25% | 1013.4 hPa | 0 mm | - | 1018 W/m² | - |
| 1777578124 | 18.33° C | 28% | 1013.6 hPa | 0 mm | - | 888 W/m² | - |
| 1777576924 | 17.78° C | 24% | 1013.9 hPa | 0 mm | - | 1102 W/m² | - |
| 1777576323 | 17.78° C | 27% | 1014 hPa | 0 mm | - | 1039 W/m² | - |
| 1777575724 | 17.22° C | 27% | 1014.3 hPa | 0 mm | - | 851 W/m² | - |
| 1777575124 | 17.22° C | 27% | 1014.4 hPa | 0 mm | - | 926 W/m² | - |
| 1777574524 | 16.67° C | 27% | 1014.4 hPa | 0 mm | - | 916 W/m² | - |
| 1777573924 | 17.78° C | 25% | 1014.5 hPa | 0 mm | - | 909 W/m² | - |
| 1777572724 | 16.11° C | 29% | 1014.7 hPa | 0 mm | - | 889 W/m² | - |
| 1777572124 | 16.11° C | 30% | 1014.7 hPa | 0 mm | - | 879 W/m² | - |
| 1777570924 | 16.67° C | 30% | 1014.9 hPa | 0 mm | - | 858 W/m² | - |
| 1777570324 | 16.67° C | 33% | 1015.2 hPa | 0 mm | - | 842 W/m² | - |
| 1777569124 | 15.56° C | 31% | 1015.3 hPa | 0 mm | - | 809 W/m² | - |
| 1777568524 | 15° C | 32% | 1015.3 hPa | 0 mm | - | 791 W/m² | - |
| 1777567324 | 15° C | 32% | 1015.3 hPa | 0 mm | - | 747 W/m² | - |
| 1777566725 | 15° C | 32% | 1015.5 hPa | 0 mm | - | 722 W/m² | - |
* Rain latest hour (hover to see other rain measurements)
** Current wind speed in m/s (hover to see current wind gust speed)